Location: Gammelsbach
(49.5261°N, 8.9630°E)
Time: 05:44:24
(UTC+00:00)

NOSS 2-1 (E) - Pass Details

Date: 17 June 2025
Orbit: 385 x 1749 km, 63.3° (Epoch: 07 May)

Event Time Altitude Azimuth Distance (km) Brightness Sun altitude
Rises 23:03:19 0° 314° (NW) 2,426 7.4 -16.9°
Reaches altitude 10° 23:05:11 10° 311° (NW) 1,642 6.4 -16.9°
Maximum altitude 23:08:43 61° 230° (SW) 638 3.4 -17.0°
Enters shadow 23:10:27 33° 164° (SSE) 1,024 4.1 -17.0°
